,,,PA_Meas_PMT16A,,PR_Meas_QMR101_102,,RH_Meas_QMH101,,SR_Meas_QMS101,,TA_Meas_QMH101,,GenWind,,GenWind,
date,time,status,PA,status,PR,status,RH,status,SR,status,TA,status,DirAvg,status,SpdAvg,
2010-04-18, 00:00:05,VALID,1011.91,VALID,0,VALID,100.843,VALID,0,VALID,24.9023,VALID,285,VALID,0,
2010-04-18, 00:01:05,VALID,1011.94,VALID,0,VALID,100.79,VALID,0.105969,VALID,24.9004,VALID,285,VALID,0.313281,
2010-04-18, 00:02:05,VALID,1011.94,VALID,0,VALID,100.797,VALID,0.105969,VALID,24.9004,VALID,288,VALID,0.252344,
2010-04-18, 00:03:05,VALID,1011.96,VALID,0,VALID,100.828,VALID,0.105969,VALID,24.9004,VALID,288,VALID,0,
2010-04-18, 00:04:05,VALID,1011.95,VALID,0,VALID,100.797,VALID,0.105969,VALID,24.9413,VALID,288,VALID,0,
2010-04-18, 00:05:05,VALID,1011.93,VALID,0,VALID,100.706,VALID,0.105969,VALID,24.8809,VALID,288,VALID,0,
2010-04-18, 00:06:05,VALID,1011.96,VALID,0,VALID,100.767,VALID,0.105969,VALID,24.8809,VALID,288,VALID,0.0601562,
2010-04-18, 00:07:05,VALID,1011.96,VALID,0,VALID,100.767,VALID,0.105969,VALID,24.8809,VALID,288,VALID,0.0367187,
2010-04-18, 00:08:05,VALID,1011.94,VALID,0,VALID,100.912,VALID,0.105969,VALID,24.9004,VALID,288,VALID,0.065625,
2010-04-18, 00:09:05,VALID,1011.97,VALID,0,VALID,100.912,VALID,0,VALID,24.8828,VALID,288,VALID,0,
2010-04-18, 00:10:05,VALID,1011.95,VALID,0,VALID,100.904,VALID,0.105969,VALID,24.8809,VALID,288,VALID,0.288281,
2010-04-18, 00:11:05,VALID,1011.97,VALID,0,VALID,100.904,VALID,0.105969,VALID,24.8633,VALID,288,VALID,0.171484,
2010-04-18, 00:12:05,VALID,1011.95,VALID,0,VALID,100.82,VALID,0.105969,VALID,24.8615,VALID,288,VALID,0,
2010-04-18, 00:13:05,VALID,1011.95,VALID,0,VALID,100.812,VALID,0,VALID,24.842,VALID,29,VALID,0.207031,
2010-04-18, 00:14:05,VALID,1011.91,VALID,0,VALID,100.713,VALID,0.105969,VALID,24.842,VALID,11,VALID,0.346094,
2010-04-18, 00:15:05,VALID,1011.9,VALID,0,VALID,100.568,VALID,0.105969,VALID,24.8225,VALID,12,VALID,0.437109,
2010-04-18, 00:16:05,VALID,1011.88,VALID,0,VALID,100.507,VALID,0.105969,VALID,24.8633,VALID,12,VALID,0,
2010-04-18, 00:17:05,VALID,1011.86,VALID,0,VALID,100.515,VALID,0.105969,VALID,24.8225,VALID,12,VALID,0.207813,
2010-04-18, 00:18:05,VALID,1011.82,VALID,0,VALID,100.523,VALID,0.105969,VALID,24.842,VALID,12,VALID,0,
2010-04-18, 00:19:05,VALID,1011.84,VALID,0,VALID,100.416,VALID,0.105969,VALID,24.842,VALID,12,VALID,0,
2010-04-18, 00:20:05,VALID,1011.81,VALID,0,VALID,100.424,VALID,0.105969,VALID,24.8225,VALID,34,VALID,0.383594,
2010-04-18, 00:21:05,VALID,1011.82,VALID,0,VALID,100.469,VALID,0.105969,VALID,24.842,VALID,34,VALID,0.0445312,
2010-04-18, 00:22:05,VALID,1011.81,VALID,0,VALID,100.538,VALID,0.105969,VALID,24.842,VALID,34,VALID,0,
2010-04-18, 00:23:05,VALID,1011.79,VALID,0,VALID,100.546,VALID,0.105969,VALID,24.842,VALID,34,VALID,0,
2010-04-18, 00:24:05,VALID,1011.79,VALID,0,VALID,100.469,VALID,0.105969,VALID,24.8225,VALID,25,VALID,0.145313,
2010-04-18, 00:25:05,VALID,1011.79,VALID,0,VALID,100.53,VALID,0.105969,VALID,24.842,VALID,25,VALID,0,
2010-04-18, 00:26:05,VALID,1011.79,VALID,0,VALID,100.492,VALID,0.105969,VALID,24.8438,VALID,25,VALID,0,
2010-04-18, 00:27:05,VALID,1011.79,VALID,0,VALID,100.568,VALID,0.105969,VALID,24.842,VALID,25,VALID,0.0980469,
2010-04-18, 00:28:05,VALID,1011.77,VALID,0,VALID,100.69,VALID,0.105969,VALID,24.842,VALID,25,VALID,0,
2010-04-18, 00:29:05,VALID,1011.76,VALID,0,VALID,100.645,VALID,0,VALID,24.8438,VALID,25,VALID,0,
2010-04-18, 00:30:05,VALID,1011.73,VALID,0,VALID,100.538,VALID,0.105969,VALID,24.8225,VALID,25,VALID,0,
2010-04-18, 00:31:05,VALID,1011.72,VALID,0,VALID,100.599,VALID,0.105969,VALID,24.8633,VALID,27,VALID,0,
2010-04-18, 00:32:05,VALID,1011.68,VALID,0,VALID,100.767,VALID,0.105969,VALID,24.842,VALID,27,VALID,0,
2010-04-18, 00:33:05,VALID,1011.64,VALID,0,VALID,100.546,VALID,0,VALID,24.8438,VALID,15,VALID,0.313281,
2010-04-18, 00:34:05,VALID,1011.61,VALID,0,VALID,100.5,VALID,0.105969,VALID,24.8438,VALID,15,VALID,0.123438,
2010-04-18, 00:35:05,VALID,1011.57,VALID,0,VALID,100.538,VALID,0,VALID,24.8438,VALID,41,VALID,0.141797,
2010-04-18, 00:36:05,VALID,1011.54,VALID,0,VALID,100.538,VALID,0.105969,VALID,24.8225,VALID,41,VALID,0,
2010-04-18, 00:37:05,VALID,1011.51,VALID,0,VALID,100.507,VALID,0.105969,VALID,24.8438,VALID,36,VALID,0,
2010-04-18, 00:38:05,VALID,1011.53,VALID,0,VALID,100.485,VALID,0.105969,VALID,24.8225,VALID,36,VALID,0.0296875,
2010-04-18, 00:39:05,VALID,1011.52,VALID,0,VALID,100.523,VALID,0.105969,VALID,24.8244,VALID,305,VALID,0.178125,
2010-04-18, 00:40:05,VALID,1011.48,VALID,0,VALID,100.568,VALID,0.105969,VALID,24.803,VALID,294,VALID,0.127734,
2010-04-18, 00:41:05,VALID,1011.47,VALID,0,VALID,100.546,VALID,0.105969,VALID,24.8244,VALID,305,VALID,0.246875,
2010-04-18, 00:42:05,VALID,1011.45,VALID,0,VALID,100.546,VALID,0,VALID,24.7835,VALID,287,VALID,0,
2010-04-18, 00:43:05,VALID,1011.4,VALID,0,VALID,100.553,VALID,0,VALID,24.7835,VALID,287,VALID,0.122266,
2010-04-18, 00:44:05,VALID,1011.38,VALID,0,VALID,100.53,VALID,0,VALID,24.8244,VALID,269,VALID,0.0492188,
2010-04-18, 00:45:05,VALID,1011.39,VALID,0,VALID,100.599,VALID,0.105969,VALID,24.803,VALID,269,VALID,0.211328,
2010-04-18, 00:46:05,VALID,1011.37,VALID,0,VALID,100.698,VALID,0,VALID,24.8244,VALID,269,VALID,0,
2010-04-18, 00:47:05,VALID,1011.35,VALID,0,VALID,100.675,VALID,0,VALID,24.8244,VALID,287,VALID,0.286328,
2010-04-18, 00:48:05,VALID,1011.34,VALID,0,VALID,100.584,VALID,0,VALID,24.8244,VALID,18,VALID,0.230078,
2010-04-18, 00:49:05,VALID,1011.35,VALID,0,VALID,100.622,VALID,0,VALID,24.8225,VALID,18,VALID,0,
2010-04-18, 00:50:05,VALID,1011.36,VALID,0,VALID,100.698,VALID,0,VALID,24.8244,VALID,15,VALID,0.00585938,
2010-04-18, 00:51:05,VALID,1011.34,VALID,0,VALID,100.721,VALID,0,VALID,24.803,VALID,314,VALID,0,
2010-04-18, 00:52:05,VALID,1011.3,VALID,0,VALID,100.729,VALID,0.105969,VALID,24.803,VALID,314,VALID,0,
2010-04-18, 00:53:05,VALID,1011.31,VALID,0,VALID,100.782,VALID,0,VALID,24.7835,VALID,310,VALID,0.103125,
2010-04-18, 00:54:05,VALID,1011.27,VALID,0,VALID,100.828,VALID,0,VALID,24.8244,VALID,267,VALID,0.153125,
2010-04-18, 00:55:05,VALID,1011.26,VALID,0,VALID,100.889,VALID,0,VALID,24.803,VALID,267,VALID,0,
2010-04-18, 00:56:05,VALID,1011.24,VALID,0,VALID,100.95,VALID,0,VALID,24.803,VALID,14,VALID,0.442578,
2010-04-18, 00:57:05,VALID,1011.24,VALID,0,VALID,100.934,VALID,0.105969,VALID,24.7835,VALID,61,VALID,0.565625,
2010-04-18, 00:58:05,VALID,1011.22,VALID,0,VALID,100.95,VALID,0,VALID,24.803,VALID,48,VALID,0.284375,
2010-04-18, 00:59:05,VALID,1011.23,VALID,0,VALID,101.011,VALID,0,VALID,24.7835,VALID,49,VALID,0.00585938,
2010-04-18, 01:00:05,VALID,1011.27,VALID,0,VALID,101.056,VALID,0,VALID,24.7835,VALID,49,VALID,0.0496094,
2010-04-18, 01:01:05,VALID,1011.23,VALID,0,VALID,101.087,VALID,0,VALID,24.7835,VALID,49,VALID,0.0820313,
2010-04-18, 01:02:05,VALID,1011.24,VALID,0,VALID,101.156,VALID,0,VALID,24.7835,VALID,81,VALID,0.354688,
2010-04-18, 01:03:05,VALID,1011.21,VALID,0,VALID,101.171,VALID,0,VALID,24.8049,VALID,91,VALID,0,
2010-04-18, 01:04:05,VALID,1011.18,VALID,0,VALID,101.209,VALID,0.105969,VALID,24.7854,VALID,89,VALID,0.712891,
2010-04-18, 01:05:05,VALID,1011.17,VALID,0,VALID,101.171,VALID,0,VALID,24.7854,VALID,98,VALID,0.531641,
2010-04-18, 01:06:05,VALID,1011.16,VALID,0,VALID,101.194,VALID,0,VALID,24.8049,VALID,50,VALID,0.344141,
2010-04-18, 01:07:05,VALID,1011.14,VALID,0,VALID,101.201,VALID,0,VALID,24.8049,VALID,66,VALID,0.103516,
2010-04-18, 01:08:05,VALID,1011.11,VALID,0,VALID,101.194,VALID,0,VALID,24.7835,VALID,309,VALID,0.0167969,
2010-04-18, 01:09:05,VALID,1011.08,VALID,0,VALID,101.186,VALID,0,VALID,24.7835,VALID,309,VALID,0,
2010-04-18, 01:10:05,VALID,1011.07,VALID,0,VALID,101.201,VALID,0,VALID,24.8049,VALID,309,VALID,0.0273438,
2010-04-18, 01:11:05,VALID,1011.06,VALID,0,VALID,101.247,VALID,0.105969,VALID,24.7835,VALID,187,VALID,0.195703,
2010-04-18, 01:12:05,VALID,1011.06,VALID,0,VALID,101.24,VALID,0,VALID,24.7854,VALID,27,VALID,0.326172,
2010-04-18, 01:13:05,VALID,1011.02,VALID,0,VALID,101.186,VALID,0,VALID,24.764,VALID,57,VALID,0.592578,
2010-04-18, 01:14:05,VALID,1011.03,VALID,0,VALID,101.178,VALID,0,VALID,24.764,VALID,267,VALID,0.352344,
2010-04-18, 01:15:05,VALID,1010.96,VALID,0,VALID,101.163,VALID,0,VALID,24.8049,VALID,343,VALID,0.399609,
2010-04-18, 01:16:05,VALID,1010.96,VALID,0,VALID,101.133,VALID,0,VALID,24.764,VALID,1,VALID,0.0171875,
2010-04-18, 01:17:05,VALID,1010.96,VALID,0,VALID,101.117,VALID,0,VALID,24.8049,VALID,24,VALID,0.580859,
2010-04-18, 01:18:05,VALID,1010.94,VALID,0,VALID,101.117,VALID,0.105969,VALID,24.7835,VALID,26,VALID,0.248437,
2010-04-18, 01:19:05,VALID,1010.93,VALID,0,VALID,101.072,VALID,0,VALID,24.764,VALID,30,VALID,0.0421875,
2010-04-18, 01:20:05,VALID,1010.94,VALID,0,VALID,101.133,VALID,0,VALID,24.7835,VALID,30,VALID,0.0078125,
2010-04-18, 01:21:05,VALID,1010.94,VALID,0,VALID,101.201,VALID,0,VALID,24.7835,VALID,34,VALID,0.0503906,
2010-04-18, 01:22:05,VALID,1010.94,VALID,0,VALID,101.194,VALID,0,VALID,24.7835,VALID,12,VALID,0.307422,
2010-04-18, 01:23:05,VALID,1010.93,VALID,0,VALID,101.186,VALID,0,VALID,24.8049,VALID,341,VALID,0.021875,
2010-04-18, 01:24:05,VALID,1010.9,VALID,0,VALID,101.224,VALID,0,VALID,24.8049,VALID,339,VALID,0.189063,
2010-04-18, 01:25:05,VALID,1010.88,VALID,0,VALID,101.194,VALID,0,VALID,24.7854,VALID,354,VALID,0.0691406,
2010-04-18, 01:26:05,VALID,1010.87,VALID,0,VALID,101.178,VALID,0,VALID,24.764,VALID,354,VALID,0.0289063,
2010-04-18, 01:27:05,VALID,1010.85,VALID,0,VALID,101.186,VALID,0.105969,VALID,24.7854,VALID,111,VALID,0.394141,
2010-04-18, 01:28:05,VALID,1010.84,VALID,0,VALID,101.178,VALID,0,VALID,24.764,VALID,111,VALID,0,
2010-04-18, 01:29:05,VALID,1010.81,VALID,0,VALID,101.178,VALID,0,VALID,24.7854,VALID,108,VALID,0.0269531,
2010-04-18, 01:30:05,VALID,1010.8,VALID,0,VALID,101.148,VALID,0,VALID,24.7659,VALID,95,VALID,0,
2010-04-18, 01:31:05,VALID,1010.82,VALID,0,VALID,101.11,VALID,0,VALID,24.7445,VALID,95,VALID,0,
2010-04-18, 01:32:05,VALID,1010.8,VALID,0,VALID,101.079,VALID,0,VALID,24.7659,VALID,95,VALID,0,
2010-04-18, 01:33:05,VALID,1010.8,VALID,0,VALID,101.026,VALID,0,VALID,24.725,VALID,109,VALID,0.402344,
2010-04-18, 01:34:05,VALID,1010.81,VALID,0,VALID,101.011,VALID,0,VALID,24.7445,VALID,122,VALID,0.00351562,
2010-04-18, 01:35:05,VALID,1010.82,VALID,0,VALID,101.026,VALID,0,VALID,24.7445,VALID,112,VALID,0.1,
2010-04-18, 01:36:05,VALID,1010.85,VALID,0,VALID,100.957,VALID,0,VALID,24.7445,VALID,360,VALID,0.445313,
2010-04-18, 01:37:05,VALID,1010.83,VALID,0,VALID,100.95,VALID,0,VALID,24.7445,VALID,7,VALID,0.0722656,
2010-04-18, 01:38:05,VALID,1010.84,VALID,0,VALID,100.942,VALID,0,VALID,24.7659,VALID,7,VALID,0.000390625,
2010-04-18, 01:39:05,VALID,1010.84,VALID,0,VALID,100.912,VALID,0.105969,VALID,24.764,VALID,7,VALID,0,
2010-04-18, 01:40:05,VALID,1010.84,VALID,0,VALID,100.904,VALID,0,VALID,24.7659,VALID,7,VALID,0,
2010-04-18, 01:41:05,VALID,1010.83,VALID,0,VALID,100.965,VALID,0,VALID,24.764,VALID,337,VALID,0.171484,
2010-04-18, 01:42:05,VALID,1010.83,VALID,0,VALID,100.912,VALID,0,VALID,24.764,VALID,355,VALID,0.808594,
2010-04-18, 01:43:05,VALID,1010.85,VALID,0,VALID,100.912,VALID,0.105969,VALID,24.7854,VALID,341,VALID,0.329688,
2010-04-18, 01:44:05,VALID,1010.83,VALID,0,VALID,100.889,VALID,0,VALID,24.764,VALID,280,VALID,1.08906,
2010-04-18, 01:45:05,VALID,1010.83,VALID,0,VALID,100.82,VALID,0,VALID,24.7835,VALID,310,VALID,0.270703,
2010-04-18, 01:46:05,VALID,1010.79,VALID,0,VALID,100.782,VALID,0,VALID,24.7835,VALID,296,VALID,0.759766,
2010-04-18, 01:47:05,VALID,1010.77,VALID,0,VALID,100.721,VALID,0.105969,VALID,24.7835,VALID,304,VALID,0.686328,
2010-04-18, 01:48:05,VALID,1010.78,VALID,0,VALID,100.607,VALID,0,VALID,24.764,VALID,308,VALID,0.650781,
2010-04-18, 01:49:05,VALID,1010.77,VALID,0,VALID,100.629,VALID,0.105969,VALID,24.803,VALID,306,VALID,0.251172,
2010-04-18, 01:50:05,VALID,1010.75,VALID,0,VALID,100.759,VALID,0,VALID,24.803,VALID,306,VALID,0,
2010-04-18, 01:51:05,VALID,1010.74,VALID,0,VALID,100.782,VALID,0.105969,VALID,24.7835,VALID,306,VALID,0,
2010-04-18, 01:52:05,VALID,1010.75,VALID,0,VALID,100.843,VALID,0.105969,VALID,24.8049,VALID,306,VALID,0.0859375,
2010-04-18, 01:53:05,VALID,1010.77,VALID,0,VALID,100.866,VALID,0.105969,VALID,24.7835,VALID,306,VALID,0,
2010-04-18, 01:54:05,VALID,1010.76,VALID,0,VALID,100.912,VALID,0.105969,VALID,24.764,VALID,306,VALID,0,
2010-04-18, 01:55:05,VALID,1010.74,VALID,0,VALID,100.881,VALID,0.105969,VALID,24.7659,VALID,316,VALID,0,
2010-04-18, 01:56:05,VALID,1010.73,VALID,0,VALID,100.896,VALID,0.105969,VALID,24.7445,VALID,316,VALID,0,
2010-04-18, 01:57:05,VALID,1010.7,VALID,0,VALID,100.873,VALID,0.105969,VALID,24.7445,VALID,360,VALID,0.366797,
2010-04-18, 01:58:05,VALID,1010.66,VALID,0,VALID,100.843,VALID,0.105969,VALID,24.7659,VALID,3,VALID,0.168359,
2010-04-18, 01:59:05,VALID,1010.65,VALID,0,VALID,100.904,VALID,0.105969,VALID,24.7445,VALID,4,VALID,0,
2010-04-18, 02:00:05,VALID,1010.64,VALID,0,VALID,100.904,VALID,0,VALID,24.7445,VALID,3,VALID,0.277344,
2010-04-18, 02:01:05,VALID,1010.63,VALID,0,VALID,100.889,VALID,0.105969,VALID,24.725,VALID,344,VALID,0.65,
2010-04-18, 02:02:05,VALID,1010.62,VALID,0,VALID,100.835,VALID,0.105969,VALID,24.7445,VALID,316,VALID,0.589453,
2010-04-18, 02:03:05,VALID,1010.62,VALID,0,VALID,100.873,VALID,0,VALID,24.7445,VALID,320,VALID,0.0316406,
2010-04-18, 02:04:05,VALID,1010.6,VALID,0,VALID,100.896,VALID,0.105969,VALID,24.7445,VALID,350,VALID,0.375,
2010-04-18, 02:05:05,VALID,1010.6,VALID,0,VALID,100.82,VALID,0.105969,VALID,24.725,VALID,16,VALID,0,
2010-04-18, 02:06:05,VALID,1010.59,VALID,0,VALID,100.805,VALID,0,VALID,24.7055,VALID,16,VALID,0,
2010-04-18, 02:07:05,VALID,1010.6,VALID,0,VALID,100.812,VALID,0.105969,VALID,24.7055,VALID,290,VALID,0.490234,
2010-04-18, 02:08:05,VALID,1010.59,VALID,0,VALID,100.866,VALID,0.105969,VALID,24.725,VALID,306,VALID,0.0722656,
2010-04-18, 02:09:05,VALID,1010.56,VALID,0,VALID,100.873,VALID,0.105969,VALID,24.725,VALID,302,VALID,0.235938,
2010-04-18, 02:10:05,VALID,1010.54,VALID,0,VALID,100.873,VALID,0.105969,VALID,24.7055,VALID,303,VALID,0.160156,
2010-04-18, 02:11:05,VALID,1010.54,VALID,0,VALID,100.82,VALID,0.105969,VALID,24.7055,VALID,303,VALID,0.000390625,
2010-04-18, 02:12:05,VALID,1010.53,VALID,0,VALID,100.767,VALID,0.105969,VALID,24.7269,VALID,303,VALID,0,
2010-04-18, 02:13:05,VALID,1010.51,VALID,0,VALID,100.683,VALID,0.105969,VALID,24.7055,VALID,347,VALID,0.402344,
2010-04-18, 02:14:05,VALID,1010.48,VALID,0,VALID,100.645,VALID,0,VALID,24.7074,VALID,347,VALID,0.0105469,
2010-04-18, 02:15:05,VALID,1010.48,VALID,0,VALID,100.736,VALID,0.105969,VALID,24.7269,VALID,347,VALID,0,
2010-04-18, 02:16:05,VALID,1010.45,VALID,0,VALID,100.698,VALID,0.105969,VALID,24.7269,VALID,347,VALID,0,
2010-04-18, 02:17:05,VALID,1010.43,VALID,0,VALID,100.812,VALID,0.105969,VALID,24.7055,VALID,347,VALID,0,
2010-04-18, 02:18:05,VALID,1010.41,VALID,0,VALID,100.812,VALID,0.105969,VALID,24.7055,VALID,347,VALID,0.0917969,
2010-04-18, 02:19:05,VALID,1010.42,VALID,0,VALID,100.767,VALID,0,VALID,24.7074,VALID,347,VALID,0.119531,
2010-04-18, 02:20:05,VALID,1010.38,VALID,0,VALID,100.782,VALID,0.105969,VALID,24.7055,VALID,347,VALID,0,
2010-04-18, 02:21:05,VALID,1010.4,VALID,0,VALID,100.82,VALID,0.105969,VALID,24.686,VALID,347,VALID,0,
2010-04-18, 02:22:05,VALID,1010.42,VALID,0,VALID,100.858,VALID,0,VALID,24.686,VALID,347,VALID,0.00117188,
2010-04-18, 02:23:05,VALID,1010.42,VALID,0,VALID,100.965,VALID,0.105969,VALID,24.7055,VALID,347,VALID,0.20625,
2010-04-18, 02:24:05,VALID,1010.45,VALID,0,VALID,101.018,VALID,0.105969,VALID,24.7055,VALID,341,VALID,0.432031,
2010-04-18, 02:25:05,VALID,1010.43,VALID,0,VALID,100.889,VALID,0.105969,VALID,24.6879,VALID,313,VALID,0.342187,
2010-04-18, 02:26:05,VALID,1010.42,VALID,0,VALID,100.767,VALID,0.105969,VALID,24.6666,VALID,314,VALID,0.455469,
2010-04-18, 02:27:05,VALID,1010.39,VALID,0,VALID,100.812,VALID,0.105969,VALID,24.6666,VALID,314,VALID,0,
2010-04-18, 02:28:05,VALID,1010.36,VALID,0,VALID,100.904,VALID,0,VALID,24.6684,VALID,314,VALID,0,
2010-04-18, 02:29:05,VALID,1010.4,VALID,0,VALID,100.95,VALID,0.105969,VALID,24.6489,VALID,314,VALID,0,
2010-04-18, 02:30:05,VALID,1010.4,VALID,0,VALID,100.927,VALID,0,VALID,24.6294,VALID,308,VALID,0.236328,
2010-04-18, 02:31:05,VALID,1010.4,VALID,0,VALID,100.98,VALID,0,VALID,24.6294,VALID,293,VALID,0.552734,
2010-04-18, 02:32:05,VALID,1010.38,VALID,0,VALID,100.942,VALID,0.105969,VALID,24.6081,VALID,296,VALID,0.451562,
2010-04-18, 02:33:05,VALID,1010.39,VALID,0,VALID,100.919,VALID,0,VALID,24.6294,VALID,301,VALID,0.841797,
2010-04-18, 02:34:05,VALID,1010.4,VALID,0,VALID,100.858,VALID,0.105969,VALID,24.6081,VALID,303,VALID,0.323438,
2010-04-18, 02:35:05,VALID,1010.38,VALID,0,VALID,100.812,VALID,0,VALID,24.6294,VALID,328,VALID,0.171484,
2010-04-18, 02:36:04,VALID,1010.34,VALID,0,VALID,100.767,VALID,0,VALID,24.6081,VALID,329,VALID,0.319531,
2010-04-18, 02:37:04,VALID,1010.33,VALID,0,VALID,100.774,VALID,0.105969,VALID,24.6081,VALID,329,VALID,0.214844,
2010-04-18, 02:38:04,VALID,1010.32,VALID,0,VALID,100.79,VALID,0,VALID,24.6081,VALID,329,VALID,0.0585938,
2010-04-18, 02:39:04,VALID,1010.31,VALID,0,VALID,100.835,VALID,0,VALID,24.6081,VALID,329,VALID,0,
2010-04-18, 02:40:04,VALID,1010.33,VALID,0,VALID,100.904,VALID,0.105969,VALID,24.6081,VALID,329,VALID,0.00078125,
2010-04-18, 02:41:04,VALID,1010.33,VALID,0,VALID,100.896,VALID,0,VALID,24.6081,VALID,329,VALID,0,
2010-04-18, 02:42:04,VALID,1010.34,VALID,0,VALID,100.973,VALID,0,VALID,24.6099,VALID,329,VALID,0.152344,
2010-04-18, 02:43:04,VALID,1010.32,VALID,0,VALID,101.034,VALID,0.105969,VALID,24.5905,VALID,329,VALID,0,
2010-04-18, 02:44:04,VALID,1010.35,VALID,0,VALID,101.125,VALID,0.105969,VALID,24.571,VALID,329,VALID,0,
2010-04-18, 02:45:04,VALID,1010.32,VALID,0,VALID,101.186,VALID,0.105969,VALID,24.5496,VALID,329,VALID,0,
2010-04-18, 02:46:04,VALID,1010.3,VALID,0,VALID,101.27,VALID,0,VALID,24.5301,VALID,329,VALID,0,
2010-04-18, 02:47:04,VALID,1010.32,VALID,0,VALID,101.285,VALID,0.105969,VALID,24.5301,VALID,329,VALID,0,
2010-04-18, 02:48:04,VALID,1010.31,VALID,0,VALID,101.346,VALID,0.105969,VALID,24.5106,VALID,329,VALID,0,
2010-04-18, 02:49:04,VALID,1010.33,VALID,0,VALID,101.369,VALID,0,VALID,24.5106,VALID,329,VALID,0,
2010-04-18, 02:50:04,VALID,1010.32,VALID,0,VALID,101.415,VALID,0,VALID,24.5106,VALID,329,VALID,0,
2010-04-18, 02:51:04,VALID,1010.3,VALID,0,VALID,101.43,VALID,0.105969,VALID,24.5125,VALID,329,VALID,0,
2010-04-18, 02:52:04,VALID,1010.29,VALID,0,VALID,101.453,VALID,0.105969,VALID,24.4911,VALID,329,VALID,0,
2010-04-18, 02:53:04,VALID,1010.27,VALID,0,VALID,101.468,VALID,0,VALID,24.5125,VALID,329,VALID,0,
2010-04-18, 02:54:04,VALID,1010.27,VALID,0,VALID,101.537,VALID,0.105969,VALID,24.4717,VALID,329,VALID,0,
2010-04-18, 02:55:04,VALID,1010.25,VALID,0,VALID,101.514,VALID,0.105969,VALID,24.493,VALID,329,VALID,0,
2010-04-18, 02:56:04,VALID,1010.24,VALID,0,VALID,101.514,VALID,0.105969,VALID,24.4522,VALID,329,VALID,0,
2010-04-18, 02:57:04,VALID,1010.23,VALID,0,VALID,101.537,VALID,0,VALID,24.4522,VALID,329,VALID,0,
2010-04-18, 02:58:04,VALID,1010.21,VALID,0,VALID,101.56,VALID,0,VALID,24.4735,VALID,329,VALID,0,
2010-04-18, 02:59:04,VALID,1010.24,VALID,0,VALID,101.56,VALID,0,VALID,24.4522,VALID,329,VALID,0,
2010-04-18, 03:00:04,VALID,1010.18,VALID,0,VALID,101.567,VALID,0,VALID,24.4735,VALID,329,VALID,0.0230469,
2010-04-18, 03:01:04,VALID,1010.19,VALID,0,VALID,101.567,VALID,0,VALID,24.4735,VALID,329,VALID,0.155078,
2010-04-18, 03:02:04,VALID,1010.21,VALID,0,VALID,101.552,VALID,0,VALID,24.4735,VALID,329,VALID,0.0953125,
2010-04-18, 03:03:04,VALID,1010.23,VALID,0,VALID,101.552,VALID,0.105969,VALID,24.4522,VALID,329,VALID,0.132422,
2010-04-18, 03:04:04,VALID,1010.2,VALID,0,VALID,101.537,VALID,0.105969,VALID,24.4522,VALID,329,VALID,0.0574219,
2010-04-18, 03:05:04,VALID,1010.2,VALID,0,VALID,101.56,VALID,0.105969,VALID,24.4735,VALID,329,VALID,0,
2010-04-18, 03:06:04,VALID,1010.21,VALID,0,VALID,101.56,VALID,0,VALID,24.4522,VALID,329,VALID,0,
2010-04-18, 03:07:04,VALID,1010.18,VALID,0,VALID,101.567,VALID,0.105969,VALID,24.4735,VALID,329,VALID,0,
2010-04-18, 03:08:04,VALID,1010.19,VALID,0,VALID,101.56,VALID,0,VALID,24.4327,VALID,329,VALID,0,
2010-04-18, 03:09:04,VALID,1010.2,VALID,0,VALID,101.59,VALID,0,VALID,24.4327,VALID,329,VALID,0,
2010-04-18, 03:10:04,VALID,1010.17,VALID,0,VALID,101.598,VALID,0,VALID,24.4327,VALID,329,VALID,0,
2010-04-18, 03:11:04,VALID,1010.19,VALID,0,VALID,101.621,VALID,0,VALID,24.4345,VALID,329,VALID,0.0363281,
2010-04-18, 03:12:04,VALID,1010.17,VALID,0,VALID,101.606,VALID,0.105969,VALID,24.415,VALID,329,VALID,0.185156,
2010-04-18, 03:13:04,VALID,1010.17,VALID,0,VALID,101.598,VALID,0.105969,VALID,24.3937,VALID,72,VALID,0.729688,
2010-04-18, 03:14:04,VALID,1010.21,VALID,0,VALID,101.606,VALID,0,VALID,24.415,VALID,88,VALID,0.715625,
2010-04-18, 03:15:04,VALID,1010.18,VALID,0,VALID,101.606,VALID,0.105969,VALID,24.415,VALID,98,VALID,0.698047,
2010-04-18, 03:16:04,VALID,1010.19,VALID,0,VALID,101.575,VALID,0.105969,VALID,24.4132,VALID,92,VALID,0.71875,
2010-04-18, 03:17:04,VALID,1010.22,VALID,0,VALID,101.545,VALID,0.105969,VALID,24.4345,VALID,92,VALID,0.457422,
2010-04-18, 03:18:04,VALID,1010.22,VALID,0,VALID,101.529,VALID,0.105969,VALID,24.4327,VALID,92,VALID,0.300781,
2010-04-18, 03:19:04,VALID,1010.22,VALID,0,VALID,101.484,VALID,0.105969,VALID,24.4327,VALID,92,VALID,0,
2010-04-18, 03:20:04,VALID,1010.21,VALID,0,VALID,101.43,VALID,0.105969,VALID,24.4132,VALID,92,VALID,0,
2010-04-18, 03:21:04,VALID,1010.2,VALID,0,VALID,101.384,VALID,0.105969,VALID,24.4345,VALID,92,VALID,0,
2010-04-18, 03:22:04,VALID,1010.25,VALID,0,VALID,101.339,VALID,0,VALID,24.4132,VALID,92,VALID,0,
2010-04-18, 03:23:04,VALID,1010.22,VALID,0,VALID,101.316,VALID,0,VALID,24.4345,VALID,92,VALID,0,
2010-04-18, 03:24:04,VALID,1010.2,VALID,0,VALID,101.278,VALID,0.105969,VALID,24.415,VALID,92,VALID,0,
2010-04-18, 03:25:04,VALID,1010.2,VALID,0,VALID,101.285,VALID,0.105969,VALID,24.3937,VALID,92,VALID,0,
2010-04-18, 03:26:04,VALID,1010.21,VALID,0,VALID,101.323,VALID,0,VALID,24.3956,VALID,92,VALID,0,
2010-04-18, 03:27:04,VALID,1010.21,VALID,0,VALID,101.354,VALID,0.105969,VALID,24.415,VALID,92,VALID,0,
2010-04-18, 03:28:04,VALID,1010.2,VALID,0,VALID,101.4,VALID,0,VALID,24.415,VALID,92,VALID,0,
2010-04-18, 03:29:04,VALID,1010.21,VALID,0,VALID,101.453,VALID,0.105969,VALID,24.3937,VALID,92,VALID,0,
2010-04-18, 03:30:04,VALID,1010.2,VALID,0,VALID,101.499,VALID,0,VALID,24.3742,VALID,92,VALID,0,
2010-04-18, 03:31:04,VALID,1010.19,VALID,0,VALID,101.476,VALID,0.105969,VALID,24.3547,VALID,92,VALID,0,
2010-04-18, 03:32:04,VALID,1010.22,VALID,0,VALID,101.506,VALID,0.105969,VALID,24.3352,VALID,92,VALID,0,
2010-04-18, 03:33:04,VALID,1010.19,VALID,0,VALID,101.529,VALID,0,VALID,24.2963,VALID,92,VALID,0,
2010-04-18, 03:34:04,VALID,1010.19,VALID,0,VALID,101.537,VALID,0,VALID,24.2981,VALID,92,VALID,0,
2010-04-18, 03:35:04,VALID,1010.23,VALID,0,VALID,101.56,VALID,0,VALID,24.2786,VALID,92,VALID,0,
2010-04-18, 03:36:04,VALID,1010.2,VALID,0,VALID,101.598,VALID,0.105969,VALID,24.2396,VALID,92,VALID,0,
2010-04-18, 03:37:04,VALID,1010.26,VALID,0,VALID,101.621,VALID,0,VALID,24.2396,VALID,92,VALID,0,
2010-04-18, 03:38:04,VALID,1010.22,VALID,0,VALID,101.644,VALID,0,VALID,24.2202,VALID,92,VALID,0,
2010-04-18, 03:39:04,VALID,1010.22,VALID,0,VALID,101.667,VALID,0,VALID,24.1988,VALID,92,VALID,0,
2010-04-18, 03:40:04,VALID,1010.19,VALID,0,VALID,101.689,VALID,0.105969,VALID,24.2007,VALID,92,VALID,0,
2010-04-18, 03:41:04,VALID,1010.21,VALID,0,VALID,101.728,VALID,0,VALID,24.1793,VALID,92,VALID,0,
2010-04-18, 03:42:04,VALID,1010.18,VALID,0,VALID,101.735,VALID,0,VALID,24.1599,VALID,92,VALID,0,
2010-04-18, 03:43:04,VALID,1010.17,VALID,0,VALID,101.766,VALID,0.105969,VALID,24.1404,VALID,92,VALID,0,
2010-04-18, 03:44:04,VALID,1010.14,VALID,0,VALID,101.789,VALID,0,VALID,24.1617,VALID,92,VALID,0,